Morrisville, NC

7:58 PM EST on January 21, 2017 (GMT -0500)
Raleigh-Durham International

Weather History for KRDU - July, 2013

Change the Weather History Date:

Tuesday, July 23, 2013

  Actual Average Record
Temperature  
Mean Temperature 83 °F 80 °F  
Max Temperature 91 °F 90 °F 105 °F (1952)
Min Temperature 74 °F 70 °F 54 °F (1947)
Degree Days  
Heating Degree Days 0 0  
Month to date heating degree days 0 0  
Since 1 June heating degree days 0 4  
Since 1 July heating degree days 0 0  
Cooling Degree Days 18 15  
Month to date cooling degree days 347 345  
Year to date cooling degree days 856 901  
Since 1 June cooling degree days 678 692  
Growing Degree Days 32 (Base 50)    
Moisture  
Dew Point 70 °F    
Average Humidity 69    
Maximum Humidity 87    
Minimum Humidity 50    
Precipitation  
Precipitation 0.00 in 0.16 in 1.78 in (1919)
Month to date precipitation 1.85 3.46  
Year to date precipitation 30.96 24.01  
Sea Level Pressure  
Sea Level Pressure 29.79 in    
Wind  
Wind Speed 8 mph (WSW)    
Max Wind Speed 14 mph    
Max Gust Speed 20 mph    
Visibility 10 miles    
Events      
T = Trace of Precipitation, MM = Missing Value Source: NWS Daily Summary

Daily Weather History Graph

Daily Weather History Graph

Search for Another Location

Airport or City:

Trip Planner

Search our weather history database for the weather conditions in past years. The results will help you decide how hot, cold, wet, or windy it might be!

Date:

Astronomy

Jul. 23, 2013 Rise Set
Actual Time 6:16 AM EDT 8:26 PM EDT
Civil Twilight 5:47 AM EDT 8:55 PM EDT
Nautical Twilight 5:11 AM EDT 9:30 PM EDT
Astronomical Twilight 4:33 AM EDT 10:08 PM EDT
Moon 8:59 PM EDT (7/23) 7:18 AM EDT (7/23)
Length of Visible Light 15h 08m
Length of Day
14h 10m
Full, 99% of the Moon is Illuminated
Jul 23
Full
Jul 29
Last Quarter
Aug 6
New
Aug 14
First Quarter
Aug 20
Full

Hourly Weather History & Observations

Time (EDT) Temp. Heat Index Dew Point Humidity Pressure Visibility Wind Dir Wind Speed Gust Speed Precip Events Conditions
12:51 AM 77.0 °F - 71.1 °F 82% 29.85 in 10.0 mi SW 10.4 mph - N/A   Partly Cloudy
1:51 AM 77.0 °F - 71.1 °F 82% 29.82 in 10.0 mi SW 9.2 mph - N/A   Partly Cloudy
2:51 AM 75.9 °F - 71.1 °F 85% 29.81 in 10.0 mi SW 9.2 mph - N/A   Partly Cloudy
3:51 AM 75.9 °F - 71.1 °F 85% 29.78 in 10.0 mi SW 11.5 mph - N/A   Partly Cloudy
4:51 AM 75.0 °F - 71.1 °F 87% 29.79 in 10.0 mi WSW 10.4 mph - N/A   Mostly Cloudy
5:51 AM 75.0 °F - 71.1 °F 87% 29.80 in 10.0 mi WSW 12.7 mph - N/A   Overcast
6:35 AM 75.2 °F - 71.6 °F 89% 29.83 in 9.0 mi WSW 10.4 mph - N/A   Mostly Cloudy
6:51 AM 75.0 °F - 71.1 °F 87% 29.82 in 9.0 mi WSW 9.2 mph - N/A   Mostly Cloudy
7:51 AM 75.9 °F - 72.0 °F 87% 29.82 in 10.0 mi WSW 9.2 mph - N/A   Mostly Cloudy
8:37 AM 78.8 °F - 71.6 °F 78% 29.84 in 10.0 mi WSW 9.2 mph 16.1 mph N/A   Scattered Clouds
8:51 AM 79.0 °F - 71.1 °F 77% 29.83 in 10.0 mi WSW 9.2 mph - N/A   Scattered Clouds
9:51 AM 82.9 °F 87.5 °F 71.1 °F 67% 29.81 in 10.0 mi WSW 11.5 mph - N/A   Scattered Clouds
10:51 AM 84.0 °F 88.4 °F 70.0 °F 63% 29.81 in 10.0 mi West 9.2 mph - N/A   Scattered Clouds
11:51 AM 84.9 °F 89.4 °F 70.0 °F 61% 29.80 in 10.0 mi West 8.1 mph 16.1 mph N/A   Mostly Cloudy
12:51 PM 87.1 °F 92.0 °F 70.0 °F 57% 29.80 in 10.0 mi West 9.2 mph 16.1 mph N/A   Scattered Clouds
1:51 PM 89.1 °F 94.1 °F 70.0 °F 53% 29.78 in 10.0 mi West 10.4 mph 17.3 mph N/A   Scattered Clouds
2:51 PM 84.9 °F 88.8 °F 69.1 °F 59% 29.77 in 10.0 mi West 5.8 mph - N/A   Mostly Cloudy
3:51 PM 87.1 °F 90.6 °F 68.0 °F 53% 29.75 in 10.0 mi WNW 9.2 mph - N/A   Mostly Cloudy
4:51 PM 89.1 °F 92.9 °F 68.0 °F 50% 29.74 in 10.0 mi WNW 9.2 mph - N/A   Mostly Cloudy
5:51 PM 86.0 °F 89.4 °F 68.0 °F 55% 29.74 in 10.0 mi West 6.9 mph - N/A   Mostly Cloudy
6:51 PM 87.1 °F 92.0 °F 70.0 °F 57% 29.73 in 10.0 mi West 5.8 mph - N/A   Scattered Clouds
7:51 PM 84.0 °F 87.8 °F 69.1 °F 61% 29.73 in 10.0 mi WSW 4.6 mph - N/A   Scattered Clouds
8:51 PM 79.0 °F - 70.0 °F 74% 29.75 in 10.0 mi WSW 5.8 mph - N/A   Scattered Clouds
9:51 PM 79.0 °F - 70.0 °F 74% 29.77 in 10.0 mi WSW 5.8 mph - N/A   Scattered Clouds
10:51 PM 78.1 °F - 69.1 °F 74% 29.78 in 10.0 mi WSW 4.6 mph - N/A   Partly Cloudy
11:51 PM 75.9 °F - 71.1 °F 85% 29.78 in 10.0 mi WSW 3.5 mph - N/A   Scattered Clouds